Time,TemperatureF,DewpointF,PressureIn,WindDirection,WindDirectionDegrees,WindSpeedMPH,WindSpeedGustMPH,Humidity,HourlyPrecipIn,Conditions,Clouds,dailyrainin,SolarRadiationWatts/m^2,SoftwareType,DateUTC
2013-03-03 00:04:00,28.2,23.1,30.15,WSW,248,0.0,0.0,81,0.00,CLR,,0.00,0.0,WeatherDisplay:10.37,2013-03-02 23:04:00,
2013-03-03 00:09:00,28.0,23.0,30.15,WNW,292,0.0,0.0,81,0.00,CLR,,0.00,0.0,WeatherDisplay:10.37,2013-03-02 23:09:00,
2013-03-03 00:14:00,28.0,23.0,30.15,WNW,292,0.0,0.0,81,0.00,CLR,,0.00,0.0,WeatherDisplay:10.37,2013-03-02 23:14:00,
2013-03-03 00:19:00,27.9,22.5,30.15,WNW,292,0.0,0.0,80,0.00,CLR,,0.00,0.0,WeatherDisplay:10.37,2013-03-02 23:19:00,
2013-03-03 00:24:00,27.9,22.5,30.15,WNW,292,0.0,0.0,80,0.00,CLR,,0.00,0.0,WeatherDisplay:10.37,2013-03-02 23:24:00,
2013-03-03 00:29:00,27.7,22.3,30.15,WNW,292,0.0,0.0,80,0.00,CLR,,0.00,0.0,WeatherDisplay:10.37,2013-03-02 23:29:00,
2013-03-03 00:34:00,27.7,22.6,30.15,WNW,292,0.0,0.0,81,0.00,CLR,,0.00,0.0,WeatherDisplay:10.37,2013-03-02 23:34:00,
2013-03-03 00:39:00,27.7,22.6,30.15,WNW,292,0.0,0.0,81,0.00,CLR,,0.00,0.0,WeatherDisplay:10.37,2013-03-02 23:39:00,
2013-03-03 00:44:00,27.5,22.4,30.15,WNW,292,0.0,0.0,81,0.00,CLR,,0.00,0.0,WeatherDisplay:10.37,2013-03-02 23:44:00,
2013-03-03 00:49:00,27.5,22.4,30.15,NW,315,0.0,0.0,81,0.00,CLR,,0.00,0.0,WeatherDisplay:10.37,2013-03-02 23:49:00,
2013-03-03 00:54:00,27.3,22.3,30.15,NW,315,0.0,0.0,81,0.00,CLR,,0.00,0.0,WeatherDisplay:10.37,2013-03-02 23:54:00,
2013-03-03 00:59:00,27.3,22.3,30.15,NW,315,0.0,0.0,81,0.00,CLR,,0.00,0.0,WeatherDisplay:10.37,2013-03-02 23:59:00,
2013-03-03 01:04:00,27.1,22.4,30.15,North,0,0.0,0.0,82,0.00,CLR,,0.00,0.0,WeatherDisplay:10.37,2013-03-03 00:04:00,
2013-03-03 01:09:00,27.1,22.4,30.15,NNW,338,0.0,0.0,82,0.00,CLR,,0.00,0.0,WeatherDisplay:10.37,2013-03-03 00:09:00,
2013-03-03 01:14:00,27.1,22.4,30.15,NNW,338,0.0,0.0,82,0.00,CLR,,0.00,0.0,WeatherDisplay:10.37,2013-03-03 00:14:00,
2013-03-03 01:19:00,27.1,22.4,30.15,NNW,338,0.0,0.0,82,0.00,CLR,,0.00,0.0,WeatherDisplay:10.37,2013-03-03 00:19:00,
2013-03-03 01:24:00,27.1,22.4,30.15,NNW,338,0.0,0.0,82,0.00,CLR,,0.00,0.0,WeatherDisplay:10.37,2013-03-03 00:24:00,
2013-03-03 01:29:00,27.0,22.5,30.15,NNW,338,0.0,0.0,83,0.00,CLR,,0.00,0.0,WeatherDisplay:10.37,2013-03-03 00:29:00,
2013-03-03 01:34:00,27.0,22.5,30.15,NNW,338,0.0,0.0,83,0.00,CLR,,0.00,0.0,WeatherDisplay:10.37,2013-03-03 00:34:00,
2013-03-03 01:39:00,27.0,22.5,30.15,NNW,338,0.0,0.0,83,0.00,CLR,,0.00,0.0,WeatherDisplay:10.37,2013-03-03 00:39:00,
2013-03-03 01:44:00,27.0,22.5,30.15,NNW,338,0.0,0.0,83,0.00,CLR,,0.00,0.0,WeatherDisplay:10.37,2013-03-03 00:44:00,
2013-03-03 01:49:00,27.0,22.5,30.15,NNW,338,0.0,0.0,83,0.00,CLR,,0.00,0.0,WeatherDisplay:10.37,2013-03-03 00:49:00,
2013-03-03 01:54:00,27.0,22.5,30.12,NNW,338,0.0,0.0,83,0.00,CLR,,0.00,0.0,WeatherDisplay:10.37,2013-03-03 00:54:00,
2013-03-03 01:59:00,27.0,22.5,30.12,NNW,338,0.0,0.0,83,0.00,CLR,,0.00,0.0,WeatherDisplay:10.37,2013-03-03 00:59:00,
2013-03-03 02:04:00,26.8,22.3,30.12,NNW,338,0.0,0.0,83,0.00,CLR,,0.00,0.0,WeatherDisplay:10.37,2013-03-03 01:04:00,
2013-03-03 02:09:00,26.8,22.6,30.12,NNW,338,0.0,0.0,84,0.00,CLR,,0.00,0.0,WeatherDisplay:10.37,2013-03-03 01:09:00,
2013-03-03 02:14:00,26.8,22.3,30.12,NNW,338,0.0,0.0,83,0.00,CLR,,0.00,0.0,WeatherDisplay:10.37,2013-03-03 01:14:00,
2013-03-03 02:19:00,26.6,22.4,30.12,NNW,338,0.0,0.0,84,0.00,CLR,,0.00,0.0,WeatherDisplay:10.37,2013-03-03 01:19:00,
2013-03-03 02:24:00,26.6,22.4,30.12,NNW,338,0.0,0.0,84,0.00,CLR,,0.00,0.0,WeatherDisplay:10.37,2013-03-03 01:24:00,
2013-03-03 02:29:00,26.4,22.2,30.12,NNW,338,0.0,0.0,84,0.00,CLR,,0.00,0.0,WeatherDisplay:10.37,2013-03-03 01:29:00,
2013-03-03 02:34:00,26.4,22.2,30.12,NNW,338,0.0,0.0,84,0.00,CLR,,0.00,0.0,WeatherDisplay:10.37,2013-03-03 01:34:00,
2013-03-03 02:39:00,26.2,22.1,30.12,NNW,338,0.0,0.0,84,0.00,CLR,,0.00,0.0,WeatherDisplay:10.37,2013-03-03 01:39:00,
2013-03-03 02:44:00,26.2,22.1,30.12,NNW,338,0.0,0.0,84,0.00,CLR,,0.00,0.0,WeatherDisplay:10.37,2013-03-03 01:44:00,
2013-03-03 02:49:00,26.2,22.1,30.12,WNW,292,0.0,0.0,84,0.00,CLR,,0.00,0.0,WeatherDisplay:10.37,2013-03-03 01:49:00,
2013-03-03 02:54:00,26.2,22.3,30.12,WSW,248,0.0,0.0,85,0.00,CLR,,0.00,0.0,WeatherDisplay:10.37,2013-03-03 01:54:00,
2013-03-03 02:59:00,26.2,22.3,30.12,West,270,2.3,2.3,85,0.00,CLR,,0.00,0.0,WeatherDisplay:10.37,2013-03-03 01:59:00,
2013-03-03 03:04:00,26.1,22.2,30.12,North,0,1.2,0.0,85,0.00,CLR,,0.00,0.0,WeatherDisplay:10.37,2013-03-03 02:04:00,
2013-03-03 03:09:00,26.2,22.3,30.12,WSW,248,2.6,0.0,85,0.00,CLR,,0.00,0.0,WeatherDisplay:10.37,2013-03-03 02:09:00,
2013-03-03 03:14:00,26.2,22.6,30.12,West,270,2.4,2.4,86,0.00,CLR,,0.00,0.0,WeatherDisplay:10.37,2013-03-03 02:14:00,
2013-03-03 03:19:00,26.2,22.3,30.12,West,270,1.2,1.2,85,0.00,CLR,,0.00,0.0,WeatherDisplay:10.37,2013-03-03 02:19:00,
2013-03-03 03:24:00,26.2,22.3,30.12,WNW,292,0.0,0.0,85,0.00,CLR,,0.00,0.0,WeatherDisplay:10.37,2013-03-03 02:24:00,
2013-03-03 03:29:00,26.2,22.3,30.12,NW,315,1.4,0.0,85,0.00,CLR,,0.00,0.0,WeatherDisplay:10.37,2013-03-03 02:29:00,
2013-03-03 03:34:00,26.2,22.6,30.12,WNW,292,3.5,3.5,86,0.00,CLR,,0.00,0.0,WeatherDisplay:10.37,2013-03-03 02:34:00,
2013-03-03 03:39:00,26.4,22.8,30.12,WNW,292,1.4,0.0,86,0.00,CLR,,0.00,0.0,WeatherDisplay:10.37,2013-03-03 02:39:00,
2013-03-03 03:44:00,26.6,23.0,30.12,West,270,2.3,0.0,86,0.00,CLR,,0.00,0.0,WeatherDisplay:10.37,2013-03-03 02:44:00,
2013-03-03 03:49:00,26.8,23.2,30.12,WNW,292,2.4,2.4,86,0.00,CLR,,0.00,0.0,WeatherDisplay:10.37,2013-03-03 02:49:00,
2013-03-03 03:54:00,27.0,23.3,30.12,WNW,292,1.2,1.6,86,0.00,CLR,,0.00,0.0,WeatherDisplay:10.37,2013-03-03 02:54:00,
2013-03-03 03:59:00,27.3,23.7,30.12,West,270,3.5,3.5,86,0.00,CLR,,0.00,0.0,WeatherDisplay:10.37,2013-03-03 02:59:00,
2013-03-03 04:04:00,27.3,23.7,30.12,WNW,292,3.5,3.5,86,0.00,CLR,,0.00,0.0,WeatherDisplay:10.37,2013-03-03 03:04:00,
2013-03-03 04:09:00,27.5,23.9,30.12,WNW,292,2.3,2.3,86,0.00,CLR,,0.00,0.0,WeatherDisplay:10.37,2013-03-03 03:09:00,
2013-03-03 04:14:00,27.7,24.0,30.12,WNW,292,1.6,0.0,86,0.00,CLR,,0.00,0.0,WeatherDisplay:10.37,2013-03-03 03:14:00,
2013-03-03 04:19:00,28.0,24.4,30.12,WSW,248,1.6,1.6,86,0.00,CLR,,0.00,0.0,WeatherDisplay:10.37,2013-03-03 03:19:00,
2013-03-03 04:24:00,28.2,24.6,30.12,West,270,2.4,2.4,86,0.00,CLR,,0.00,0.0,WeatherDisplay:10.37,2013-03-03 03:24:00,
2013-03-03 04:29:00,28.2,24.3,30.12,WSW,248,2.0,0.0,85,0.00,CLR,,0.00,0.0,WeatherDisplay:10.37,2013-03-03 03:29:00,
2013-03-03 04:34:00,28.2,24.0,30.12,West,270,2.3,2.3,84,0.00,CLR,,0.00,0.0,WeatherDisplay:10.37,2013-03-03 03:34:00,
2013-03-03 04:39:00,28.2,24.0,30.12,WSW,248,3.5,3.5,84,0.00,CLR,,0.00,0.0,WeatherDisplay:10.37,2013-03-03 03:39:00,
2013-03-03 04:44:00,28.9,25.0,30.12,WNW,292,2.3,2.3,85,0.00,CLR,,0.00,0.0,WeatherDisplay:10.37,2013-03-03 03:44:00,
2013-03-03 04:49:00,29.1,24.9,30.12,WNW,292,3.5,3.5,84,0.00,CLR,,0.00,0.0,WeatherDisplay:10.37,2013-03-03 03:49:00,
2013-03-03 04:54:00,28.9,24.4,30.12,WSW,248,1.2,1.4,83,0.00,CLR,,0.00,0.0,WeatherDisplay:10.37,2013-03-03 03:54:00,
2013-03-03 04:59:00,28.9,24.4,30.12,WSW,248,1.6,1.6,83,0.00,CLR,,0.00,0.0,WeatherDisplay:10.37,2013-03-03 03:59:00,
2013-03-03 05:04:00,28.8,24.0,30.12,West,270,2.4,2.4,82,0.00,CLR,,0.00,0.0,WeatherDisplay:10.37,2013-03-03 04:04:00,
2013-03-03 05:09:00,28.8,24.0,30.12,WNW,292,2.3,2.3,82,0.00,CLR,,0.00,0.0,WeatherDisplay:10.37,2013-03-03 04:09:00,
2013-03-03 05:14:00,28.6,23.8,30.12,NNW,338,0.0,0.0,82,0.00,CLR,,0.00,0.0,WeatherDisplay:10.37,2013-03-03 04:14:00,
2013-03-03 05:19:00,28.4,23.6,30.12,WNW,292,0.0,0.0,82,0.00,CLR,,0.00,0.0,WeatherDisplay:10.37,2013-03-03 04:19:00,
2013-03-03 05:24:00,28.2,23.4,30.12,NW,315,0.0,0.0,82,0.00,CLR,,0.00,0.0,WeatherDisplay:10.37,2013-03-03 04:24:00,
2013-03-03 05:29:00,28.0,23.3,30.12,NW,315,0.0,0.0,82,0.00,CLR,,0.00,0.0,WeatherDisplay:10.37,2013-03-03 04:29:00,
2013-03-03 05:34:00,27.9,23.1,30.12,WSW,248,0.0,0.0,82,0.00,CLR,,0.00,0.0,WeatherDisplay:10.37,2013-03-03 04:34:00,
2013-03-03 05:39:00,27.9,23.4,30.09,West,270,1.2,1.4,83,0.00,CLR,,0.00,0.0,WeatherDisplay:10.37,2013-03-03 04:39:00,
2013-03-03 05:44:00,27.7,22.9,30.09,West,270,0.0,0.0,82,0.00,CLR,,0.00,0.0,WeatherDisplay:10.37,2013-03-03 04:44:00,
2013-03-03 05:49:00,27.5,22.7,30.09,West,270,0.0,0.0,82,0.00,CLR,,0.00,0.0,WeatherDisplay:10.37,2013-03-03 04:49:00,
2013-03-03 05:54:00,27.3,22.8,30.09,West,270,0.0,0.0,83,0.00,CLR,,0.00,0.0,WeatherDisplay:10.37,2013-03-03 04:54:00,
2013-03-03 05:59:00,27.0,22.5,30.09,West,270,0.0,0.0,83,0.00,CLR,,0.00,0.0,WeatherDisplay:10.37,2013-03-03 04:59:00,
2013-03-03 06:00:00,27.0,22.5,30.09,WSW,248,0.0,0.0,83,0.00,OVC,,0.00,0.0,WeatherDisplay:10.37,2013-03-03 05:00:00,
2013-03-03 06:05:00,27.0,22.5,30.09,WSW,248,2.3,2.3,83,0.00,OVC,,0.00,0.0,WeatherDisplay:10.37,2013-03-03 05:05:00,
2013-03-03 06:10:00,26.8,22.6,30.09,WSW,248,2.9,2.9,84,0.00,OVC,,0.00,0.0,WeatherDisplay:10.37,2013-03-03 05:10:00,
2013-03-03 06:15:00,26.8,22.9,30.09,West,270,3.5,3.5,85,0.00,OVC,,0.00,0.0,WeatherDisplay:10.37,2013-03-03 05:15:00,
2013-03-03 06:20:00,26.6,22.7,30.09,WNW,292,2.4,2.4,85,0.00,OVC,,0.00,0.0,WeatherDisplay:10.37,2013-03-03 05:20:00,
2013-03-03 06:25:00,26.6,22.7,30.09,WNW,292,0.0,0.0,85,0.00,OVC,,0.00,0.0,WeatherDisplay:10.37,2013-03-03 05:25:00,
2013-03-03 06:30:00,26.8,22.9,30.09,WNW,292,1.2,0.0,85,0.00,OVC,,0.00,0.0,WeatherDisplay:10.37,2013-03-03 05:30:00,
2013-03-03 06:35:00,26.6,23.0,30.09,NNW,338,2.3,2.3,86,0.00,OVC,,0.00,0.0,WeatherDisplay:10.37,2013-03-03 05:35:00,
2013-03-03 06:40:00,26.8,23.2,30.09,West,270,0.0,0.0,86,0.00,OVC,,0.00,0.0,WeatherDisplay:10.37,2013-03-03 05:40:00,
2013-03-03 06:45:00,26.6,23.0,30.09,WNW,292,0.0,0.0,86,0.00,OVC,,0.00,0.0,WeatherDisplay:10.37,2013-03-03 05:45:00,
2013-03-03 06:50:00,26.6,23.0,30.09,NNW,338,0.0,0.0,86,0.00,OVC,,0.00,0.0,WeatherDisplay:10.37,2013-03-03 05:50:00,
2013-03-03 06:55:00,26.6,23.0,30.12,WNW,292,0.0,0.0,86,0.00,OVC,,0.00,0.0,WeatherDisplay:10.37,2013-03-03 05:55:00,
2013-03-03 07:00:00,26.6,23.0,30.12,WNW,292,2.3,2.3,86,0.00,OVC,,0.00,0.0,WeatherDisplay:10.37,2013-03-03 06:00:00,
2013-03-03 07:05:00,26.8,23.4,30.12,West,270,3.5,3.5,87,0.00,OVC,,0.00,0.0,WeatherDisplay:10.37,2013-03-03 06:05:00,
2013-03-03 07:10:00,27.0,23.9,30.09,WSW,248,2.3,2.3,88,0.00,OVC,,0.00,0.0,WeatherDisplay:10.37,2013-03-03 06:10:00,
2013-03-03 07:15:00,27.7,24.6,30.09,WNW,292,2.3,2.3,88,0.00,OVC,,0.00,0.0,WeatherDisplay:10.37,2013-03-03 06:15:00,
2013-03-03 07:20:00,28.2,25.4,30.09,SSW,202,1.4,1.6,89,0.00,OVC,,0.00,0.0,WeatherDisplay:10.37,2013-03-03 06:20:00,
2013-03-03 07:25:00,29.1,26.0,30.12,SSW,202,3.5,3.5,88,0.00,OVC,,0.00,0.0,WeatherDisplay:10.37,2013-03-03 06:25:00,
2013-03-03 07:30:00,30.0,26.6,30.12,SSW,202,3.5,3.5,87,0.00,OVC,,0.00,0.0,WeatherDisplay:10.37,2013-03-03 06:30:00,
2013-03-03 07:35:00,30.6,26.6,30.12,SSW,202,2.3,2.3,85,0.00,OVC,,0.00,0.0,WeatherDisplay:10.37,2013-03-03 06:35:00,
2013-03-03 07:40:00,31.1,26.5,30.12,WSW,248,2.3,2.3,83,0.00,OVC,,0.00,0.0,WeatherDisplay:10.37,2013-03-03 06:40:00,
2013-03-03 07:45:00,31.3,26.4,30.12,SW,225,3.5,3.5,82,0.00,OVC,,0.00,0.0,WeatherDisplay:10.37,2013-03-03 06:45:00,
2013-03-03 07:50:00,31.6,26.5,30.12,WSW,248,1.6,1.6,81,0.00,OVC,,0.00,0.0,WeatherDisplay:10.37,2013-03-03 06:50:00,
2013-03-03 07:55:00,32.0,26.5,30.12,SSW,202,3.5,3.5,80,0.00,OVC,,0.00,0.0,WeatherDisplay:10.37,2013-03-03 06:55:00,
2013-03-03 08:00:00,32.0,26.5,30.12,SSW,202,3.3,3.3,80,0.00,OVC,,0.00,0.0,WeatherDisplay:10.37,2013-03-03 07:00:00,
2013-03-03 08:05:00,32.0,26.2,30.12,WSW,248,4.6,4.6,79,0.00,OVC,,0.00,0.0,WeatherDisplay:10.37,2013-03-03 07:05:00,
2013-03-03 08:10:00,32.0,26.2,30.12,WSW,248,2.3,0.0,79,0.00,OVC,,0.00,0.0,WeatherDisplay:10.37,2013-03-03 07:10:00,
2013-03-03 08:15:00,32.4,26.9,30.12,WSW,248,4.0,4.0,80,0.00,OVC,,0.00,0.0,WeatherDisplay:10.37,2013-03-03 07:15:00,
2013-03-03 08:20:00,32.7,26.9,30.12,WSW,248,3.5,3.5,79,0.00,OVC,,0.00,0.0,WeatherDisplay:10.37,2013-03-03 07:20:00,
2013-03-03 08:25:00,33.3,27.1,30.12,SSW,202,3.5,3.5,78,0.00,OVC,,0.00,0.0,WeatherDisplay:10.37,2013-03-03 07:25:00,
2013-03-03 08:30:00,33.6,27.5,30.12,SSW,202,2.3,0.0,78,0.00,OVC,,0.00,0.0,WeatherDisplay:10.37,2013-03-03 07:30:00,
2013-03-03 08:35:00,33.8,27.4,30.12,SSW,202,3.5,3.5,77,0.00,OVC,,0.00,0.0,WeatherDisplay:10.37,2013-03-03 07:35:00,
2013-03-03 08:40:00,34.2,27.4,30.12,WSW,248,3.8,3.8,76,0.00,OVC,,0.00,0.0,WeatherDisplay:10.37,2013-03-03 07:40:00,
2013-03-03 08:45:00,34.3,27.6,30.12,NW,315,2.3,2.3,76,0.00,OVC,,0.00,0.0,WeatherDisplay:10.37,2013-03-03 07:45:00,
2013-03-03 08:50:00,34.5,27.7,30.12,WSW,248,3.5,3.5,76,0.00,OVC,,0.00,0.0,WeatherDisplay:10.37,2013-03-03 07:50:00,
2013-03-03 08:55:00,35.1,27.9,30.12,WSW,248,3.5,3.5,75,0.00,OVC,,0.00,0.0,WeatherDisplay:10.37,2013-03-03 07:55:00,
2013-03-03 09:00:00,35.4,28.3,30.12,SSW,202,5.8,5.8,75,0.00,OVC,,0.00,0.0,WeatherDisplay:10.37,2013-03-03 08:00:00,
2013-03-03 09:05:00,36.0,27.1,30.12,SW,225,5.9,5.9,70,0.00,OVC,,0.00,0.0,WeatherDisplay:10.37,2013-03-03 08:05:00,
2013-03-03 09:10:00,36.5,26.9,30.09,West,270,4.6,4.6,68,0.00,OVC,,0.00,0.0,WeatherDisplay:10.37,2013-03-03 08:10:00,
2013-03-03 09:15:00,36.9,27.6,30.09,NNW,338,3.6,3.6,69,0.00,OVC,,0.00,0.0,WeatherDisplay:10.37,2013-03-03 08:15:00,
2013-03-03 09:20:00,37.2,27.6,30.09,West,270,5.8,5.8,68,0.00,OVC,,0.00,0.0,WeatherDisplay:10.37,2013-03-03 08:20:00,
2013-03-03 09:25:00,37.6,26.5,30.12,WSW,248,5.6,5.6,64,0.00,OVC,,0.00,0.0,WeatherDisplay:10.37,2013-03-03 08:25:00,
2013-03-03 09:53:00,39.7,27.4,30.09,West,270,5.8,5.8,61,0.00,OVC,,0.00,0.0,WeatherDisplay:10.37,2013-03-03 08:53:00,
2013-03-03 09:58:00,40.1,27.3,30.09,WSW,248,5.8,5.8,60,0.00,OVC,,0.00,0.0,WeatherDisplay:10.37,2013-03-03 08:58:00,
2013-03-03 10:03:00,40.3,26.2,30.09,West,270,4.6,4.6,57,0.00,OVC,,0.00,0.0,WeatherDisplay:10.37,2013-03-03 09:03:00,
2013-03-03 10:08:00,40.6,26.6,30.09,ESE,112,5.9,5.9,57,0.00,OVC,,0.00,0.0,WeatherDisplay:10.37,2013-03-03 09:08:00,
2013-03-03 10:13:00,41.0,25.6,30.09,WNW,292,8.1,8.1,54,0.00,OVC,,0.00,0.0,WeatherDisplay:10.37,2013-03-03 09:13:00,
2013-03-03 10:18:00,41.2,25.8,30.09,NNW,338,8.1,8.1,54,0.00,OVC,,0.00,0.0,WeatherDisplay:10.37,2013-03-03 09:18:00,
2013-03-03 10:23:00,41.4,25.5,30.06,SW,225,6.9,6.9,53,0.00,OVC,,0.00,0.0,WeatherDisplay:10.37,2013-03-03 09:23:00,
2013-03-03 10:28:00,41.7,26.3,30.06,WNW,292,6.9,6.9,54,0.00,OVC,,0.00,0.0,WeatherDisplay:10.37,2013-03-03 09:28:00,
2013-03-03 10:33:00,41.7,25.4,30.06,WNW,292,8.1,8.1,52,0.00,OVC,,0.00,0.0,WeatherDisplay:10.37,2013-03-03 09:33:00,
2013-03-03 10:38:00,42.3,26.3,30.06,NNW,338,6.4,6.4,53,0.00,OVC,,0.00,0.0,WeatherDisplay:10.37,2013-03-03 09:38:00,
2013-03-03 10:43:00,42.6,26.2,30.06,WNW,292,5.8,5.8,52,0.00,OVC,,0.00,0.0,WeatherDisplay:10.37,2013-03-03 09:43:00,
2013-03-03 10:48:00,42.6,26.2,30.06,North,0,9.2,9.2,52,0.00,OVC,,0.00,0.0,WeatherDisplay:10.37,2013-03-03 09:48:00,
2013-03-03 10:53:00,42.8,25.4,30.06,WSW,248,4.6,5.9,50,0.00,OVC,,0.00,0.0,WeatherDisplay:10.37,2013-03-03 09:53:00,
2013-03-03 10:58:00,42.8,24.9,30.06,WSW,248,9.2,9.2,49,0.00,OVC,,0.00,0.0,WeatherDisplay:10.37,2013-03-03 09:58:00,
2013-03-03 11:03:00,42.8,25.9,30.06,West,270,10.4,10.4,51,0.00,OVC,,0.00,0.0,WeatherDisplay:10.37,2013-03-03 10:03:00,
2013-03-03 11:08:00,42.8,25.4,30.09,WNW,292,12.8,12.8,50,0.00,OVC,,0.00,0.0,WeatherDisplay:10.37,2013-03-03 10:08:00,
2013-03-03 11:13:00,42.8,25.4,30.09,NNW,338,8.1,8.1,50,0.00,OVC,,0.00,0.0,WeatherDisplay:10.37,2013-03-03 10:13:00,
2013-03-03 11:18:00,43.5,26.1,30.09,West,270,8.1,8.1,50,0.00,OVC,,0.00,0.0,WeatherDisplay:10.37,2013-03-03 10:18:00,
2013-03-03 11:23:00,43.3,26.4,30.09,West,270,8.1,8.1,51,0.00,OVC,,0.00,0.0,WeatherDisplay:10.37,2013-03-03 10:23:00,
2013-03-03 11:28:00,43.5,26.1,30.09,WNW,292,9.2,9.2,50,0.00,OVC,,0.00,0.0,WeatherDisplay:10.37,2013-03-03 10:28:00,
2013-03-03 11:33:00,43.7,25.8,30.09,WNW,292,9.2,9.2,49,0.00,OVC,,0.00,0.0,WeatherDisplay:10.37,2013-03-03 10:33:00,
2013-03-03 11:38:00,44.1,26.1,30.09,WNW,292,9.2,9.2,49,0.00,OVC,,0.00,0.0,WeatherDisplay:10.37,2013-03-03 10:38:00,
2013-03-03 11:43:00,44.1,26.1,30.09,WSW,248,4.6,4.6,49,0.00,OVC,,0.00,0.0,WeatherDisplay:10.37,2013-03-03 10:43:00,
2013-03-03 11:48:00,44.6,26.6,30.09,WNW,292,9.2,9.2,49,0.00,OVC,,0.00,0.0,WeatherDisplay:10.37,2013-03-03 10:48:00,
2013-03-03 11:53:00,44.6,27.6,30.09,West,270,10.4,10.4,51,0.00,OVC,,0.00,0.0,WeatherDisplay:10.37,2013-03-03 10:53:00,
2013-03-03 11:58:00,44.6,26.1,30.09,WSW,248,10.4,10.4,48,0.00,OVC,,0.00,0.0,WeatherDisplay:10.37,2013-03-03 10:58:00,
2013-03-03 12:03:00,44.6,26.1,30.09,WSW,248,8.1,8.1,48,0.00,OVC,,0.00,0.0,WeatherDisplay:10.37,2013-03-03 11:03:00,
2013-03-03 12:08:00,44.6,25.6,30.06,NW,315,11.5,11.5,47,0.00,OVC,,0.00,0.0,WeatherDisplay:10.37,2013-03-03 11:08:00,
2013-03-03 12:13:00,44.8,25.8,30.06,WNW,292,7.6,7.6,47,0.00,OVC,,0.00,0.0,WeatherDisplay:10.37,2013-03-03 11:13:00,
2013-03-03 12:18:00,45.1,27.1,30.06,WNW,292,12.7,12.7,49,0.00,OVC,,0.00,0.0,WeatherDisplay:10.37,2013-03-03 11:18:00,
2013-03-03 12:23:00,45.1,26.6,30.06,WNW,292,6.9,6.9,48,0.00,OVC,,0.00,0.0,WeatherDisplay:10.37,2013-03-03 11:23:00,
2013-03-03 12:28:00,45.3,23.0,30.06,WNW,292,15.0,15.0,41,0.00,OVC,,0.00,0.0,WeatherDisplay:10.37,2013-03-03 11:28:00,
2013-03-03 12:33:00,45.1,23.9,30.06,WNW,292,6.9,6.9,43,0.00,OVC,,0.00,0.0,WeatherDisplay:10.37,2013-03-03 11:33:00,
2013-03-03 12:38:00,45.3,23.5,30.06,WNW,292,8.1,8.1,42,0.00,OVC,,0.00,0.0,WeatherDisplay:10.37,2013-03-03 11:38:00,
2013-03-03 12:43:00,45.7,23.9,30.06,WSW,248,6.9,6.9,42,0.00,OVC,,0.00,0.0,WeatherDisplay:10.37,2013-03-03 11:43:00,
2013-03-03 12:48:00,45.3,23.0,30.06,NNW,338,10.4,10.4,41,0.00,OVC,,0.00,0.0,WeatherDisplay:10.37,2013-03-03 11:48:00,
2013-03-03 12:53:00,45.3,23.5,30.03,SSE,158,6.2,6.2,42,0.00,OVC,,0.00,0.0,WeatherDisplay:10.37,2013-03-03 11:53:00,
2013-03-03 12:58:00,45.9,24.0,30.03,WNW,292,10.4,10.4,42,0.00,OVC,,0.00,0.0,WeatherDisplay:10.37,2013-03-03 11:58:00,
2013-03-03 13:03:00,45.5,24.8,30.03,NNW,338,12.8,12.8,44,0.00,OVC,,0.00,0.0,WeatherDisplay:10.37,2013-03-03 12:03:00,
2013-03-03 13:08:00,45.1,23.4,30.03,WNW,292,11.5,11.5,42,0.00,OVC,,0.00,0.0,WeatherDisplay:10.37,2013-03-03 12:08:00,
2013-03-03 13:13:00,45.1,24.5,30.03,WNW,292,9.2,9.2,44,0.00,OVC,,0.00,0.0,WeatherDisplay:10.37,2013-03-03 12:13:00,
2013-03-03 13:18:00,45.1,23.9,30.03,WNW,292,8.1,8.1,43,0.00,OVC,,0.00,0.0,WeatherDisplay:10.37,2013-03-03 12:18:00,
2013-03-03 13:23:00,45.3,24.1,30.03,WNW,292,9.2,9.2,43,0.00,OVC,,0.00,0.0,WeatherDisplay:10.37,2013-03-03 12:23:00,
2013-03-03 13:28:00,45.3,24.7,30.03,West,270,6.9,6.9,44,0.00,OVC,,0.00,0.0,WeatherDisplay:10.37,2013-03-03 12:28:00,
2013-03-03 13:33:00,45.5,25.4,30.03,WNW,292,13.8,13.8,45,0.00,OVC,,0.00,0.0,WeatherDisplay:10.37,2013-03-03 12:33:00,
2013-03-03 13:38:00,45.3,25.2,30.03,WNW,292,6.0,6.0,45,0.00,OVC,,0.00,0.0,WeatherDisplay:10.37,2013-03-03 12:38:00,
2013-03-03 13:43:00,45.5,25.4,30.03,SSW,202,8.1,8.1,45,0.00,OVC,,0.00,0.0,WeatherDisplay:10.37,2013-03-03 12:43:00,
2013-03-03 13:48:00,45.7,26.6,30.03,NNW,338,5.8,5.8,47,0.00,OVC,,0.00,0.0,WeatherDisplay:10.37,2013-03-03 12:48:00,
2013-03-03 13:53:00,45.5,26.4,30.03,NW,315,12.3,12.3,47,0.00,OVC,,0.00,0.0,WeatherDisplay:10.37,2013-03-03 12:53:00,
2013-03-03 13:58:00,45.9,25.7,30.03,NNW,338,13.0,13.0,45,0.00,OVC,,0.00,0.0,WeatherDisplay:10.37,2013-03-03 12:58:00,
2013-03-03 14:03:00,45.7,26.6,30.03,SW,225,6.4,6.4,47,0.00,OVC,,0.00,0.0,WeatherDisplay:10.37,2013-03-03 13:03:00,
2013-03-03 14:08:00,46.0,25.3,30.03,NE,45,11.5,11.5,44,0.00,OVC,,0.00,0.0,WeatherDisplay:10.37,2013-03-03 13:08:00,
2013-03-03 14:13:00,46.0,25.3,30.03,WSW,248,10.4,10.4,44,0.00,OVC,,0.00,0.0,WeatherDisplay:10.37,2013-03-03 13:13:00,
2013-03-03 14:18:00,45.9,25.7,30.03,NNW,338,9.2,9.2,45,0.00,OVC,,0.00,0.0,WeatherDisplay:10.37,2013-03-03 13:18:00,
2013-03-03 14:23:00,46.0,26.4,30.00,NW,315,8.1,8.1,46,0.00,OVC,,0.00,0.0,WeatherDisplay:10.37,2013-03-03 13:23:00,
2013-03-03 14:28:00,46.2,27.1,30.00,WNW,292,8.1,8.1,47,0.00,OVC,,0.00,0.0,WeatherDisplay:10.37,2013-03-03 13:28:00,
2013-03-03 14:33:00,46.9,26.7,30.00,WSW,248,8.1,8.1,45,0.00,OVC,,0.00,0.0,WeatherDisplay:10.37,2013-03-03 13:33:00,
2013-03-03 14:38:00,46.8,26.5,30.00,NNW,338,6.9,6.9,45,0.00,OVC,,0.00,0.0,WeatherDisplay:10.37,2013-03-03 13:38:00,
2013-03-03 14:43:00,46.4,26.7,30.00,NW,315,8.1,8.1,46,0.00,OVC,,0.00,0.0,WeatherDisplay:10.37,2013-03-03 13:43:00,
2013-03-03 14:48:00,46.4,26.7,30.00,WNW,292,8.1,8.1,46,0.00,OVC,,0.00,0.0,WeatherDisplay:10.37,2013-03-03 13:48:00,
2013-03-03 14:53:00,46.4,26.2,30.03,NNW,338,8.7,8.7,45,0.00,OVC,,0.00,0.0,WeatherDisplay:10.37,2013-03-03 13:53:00,
2013-03-03 14:58:00,46.2,26.6,30.03,WSW,248,11.5,11.5,46,0.00,OVC,,0.00,0.0,WeatherDisplay:10.37,2013-03-03 13:58:00,
2013-03-03 15:03:00,46.0,25.9,30.03,WNW,292,8.1,8.1,45,0.00,OVC,,0.00,0.0,WeatherDisplay:10.37,2013-03-03 14:03:00,
2013-03-03 15:08:00,45.9,26.2,30.03,WNW,292,12.7,12.7,46,0.00,OVC,,0.00,0.0,WeatherDisplay:10.37,2013-03-03 14:08:00,
2013-03-03 15:13:00,45.9,26.7,30.03,WNW,292,10.0,10.0,47,0.00,OVC,,0.00,0.0,WeatherDisplay:10.37,2013-03-03 14:13:00,
2013-03-03 15:18:00,45.7,26.6,30.03,WSW,248,8.1,8.1,47,0.00,OVC,,0.00,0.0,WeatherDisplay:10.37,2013-03-03 14:18:00,
2013-03-03 15:23:00,45.5,25.9,30.03,WNW,292,11.5,11.5,46,0.00,OVC,,0.00,0.0,WeatherDisplay:10.37,2013-03-03 14:23:00,
2013-03-03 15:28:00,45.5,26.4,30.03,WNW,292,8.7,8.7,47,0.00,OVC,,0.00,0.0,WeatherDisplay:10.37,2013-03-03 14:28:00,
2013-03-03 15:33:00,45.3,26.8,30.03,SSW,202,9.2,9.2,48,0.00,OVC,,0.00,0.0,WeatherDisplay:10.37,2013-03-03 14:33:00,
2013-03-03 15:38:00,45.1,26.1,30.03,SSW,202,12.7,12.7,47,0.00,OVC,,0.00,0.0,WeatherDisplay:10.37,2013-03-03 14:38:00,
2013-03-03 15:43:00,45.0,24.9,30.03,NW,315,8.1,8.1,45,0.00,OVC,,0.00,0.0,WeatherDisplay:10.37,2013-03-03 14:43:00,
2013-03-03 15:48:00,44.8,25.2,30.03,NNW,338,9.2,9.2,46,0.00,OVC,,0.00,0.0,WeatherDisplay:10.37,2013-03-03 14:48:00,
2013-03-03 15:53:00,44.8,25.2,30.03,WNW,292,8.1,8.1,46,0.00,OVC,,0.00,0.0,WeatherDisplay:10.37,2013-03-03 14:53:00,
2013-03-03 15:58:00,44.4,25.4,30.03,NNW,338,10.5,10.5,47,0.00,OVC,,0.00,0.0,WeatherDisplay:10.37,2013-03-03 14:58:00,
2013-03-03 16:03:00,44.4,25.9,30.03,WNW,292,13.8,13.8,48,0.00,OVC,,0.00,0.0,WeatherDisplay:10.37,2013-03-03 15:03:00,
2013-03-03 16:08:00,44.1,26.1,30.03,NNW,338,8.1,8.1,49,0.00,OVC,,0.00,0.0,WeatherDisplay:10.37,2013-03-03 15:08:00,
2013-03-03 16:13:00,44.1,26.1,30.03,NNW,338,9.2,9.2,49,0.00,OVC,,0.00,0.0,WeatherDisplay:10.37,2013-03-03 15:13:00,
2013-03-03 16:18:00,43.7,25.8,30.03,WNW,292,13.8,13.8,49,0.00,OVC,,0.00,0.0,WeatherDisplay:10.37,2013-03-03 15:18:00,
2013-03-03 16:23:00,43.5,26.1,30.03,WSW,248,8.1,8.1,50,0.00,OVC,,0.00,0.0,WeatherDisplay:10.37,2013-03-03 15:23:00,
2013-03-03 16:28:00,43.3,25.9,30.03,NNW,338,10.4,10.4,50,0.00,OVC,,0.00,0.0,WeatherDisplay:10.37,2013-03-03 15:28:00,
2013-03-03 16:33:00,43.2,26.2,30.03,NNW,338,10.4,10.4,51,0.00,OVC,,0.00,0.0,WeatherDisplay:10.37,2013-03-03 15:33:00,
2013-03-03 16:38:00,42.8,25.9,30.03,WNW,292,9.2,9.2,51,0.00,OVC,,0.00,0.0,WeatherDisplay:10.37,2013-03-03 15:38:00,
2013-03-03 16:43:00,42.6,26.2,30.03,WNW,292,8.5,8.5,52,0.00,OVC,,0.00,0.0,WeatherDisplay:10.37,2013-03-03 15:43:00,
2013-03-03 16:48:00,42.4,26.5,30.03,WNW,292,8.1,8.1,53,0.00,OVC,,0.00,0.0,WeatherDisplay:10.37,2013-03-03 15:48:00,
2013-03-03 16:53:00,42.4,26.5,30.03,WNW,292,7.4,7.4,53,0.00,OVC,,0.00,0.0,WeatherDisplay:10.37,2013-03-03 15:53:00,
2013-03-03 16:58:00,42.3,26.3,30.03,West,270,9.2,9.2,53,0.00,OVC,,0.00,0.0,WeatherDisplay:10.37,2013-03-03 15:58:00,
2013-03-03 17:03:00,42.3,26.3,30.03,WNW,292,5.8,5.8,53,0.00,OVC,,0.00,0.0,WeatherDisplay:10.37,2013-03-03 16:03:00,
2013-03-03 17:08:00,42.1,26.2,30.03,NNW,338,13.7,13.7,53,0.00,OVC,,0.00,0.0,WeatherDisplay:10.37,2013-03-03 16:08:00,
2013-03-03 17:13:00,41.9,26.0,30.03,WNW,292,11.2,11.2,53,0.00,OVC,,0.00,0.0,WeatherDisplay:10.37,2013-03-03 16:13:00,
2013-03-03 17:18:00,41.7,25.8,30.03,NNW,338,12.7,12.7,53,0.00,OVC,,0.00,0.0,WeatherDisplay:10.37,2013-03-03 16:18:00,
2013-03-03 17:23:00,41.5,26.1,30.03,NNW,338,10.4,10.4,54,0.00,OVC,,0.00,0.0,WeatherDisplay:10.37,2013-03-03 16:23:00,
2013-03-03 17:28:00,41.4,25.9,30.03,NNW,338,6.9,6.9,54,0.00,OVC,,0.00,0.0,WeatherDisplay:10.37,2013-03-03 16:28:00,
2013-03-03 17:33:00,41.2,26.2,30.03,WNW,292,6.9,6.9,55,0.00,OVC,,0.00,0.0,WeatherDisplay:10.37,2013-03-03 16:33:00,
2013-03-03 17:38:00,41.0,26.1,30.03,NNW,338,10.2,10.2,55,0.00,OVC,,0.00,0.0,WeatherDisplay:10.37,2013-03-03 16:38:00,
2013-03-03 17:43:00,41.0,26.1,30.03,NNW,338,9.2,9.2,55,0.00,OVC,,0.00,0.0,WeatherDisplay:10.37,2013-03-03 16:43:00,
2013-03-03 17:48:00,40.8,26.3,30.03,NNW,338,12.7,12.7,56,0.00,OVC,,0.00,0.0,WeatherDisplay:10.37,2013-03-03 16:48:00,
2013-03-03 17:53:00,40.6,26.2,30.03,NNW,338,12.8,12.8,56,0.00,OVC,,0.00,0.0,WeatherDisplay:10.37,2013-03-03 16:53:00,
2013-03-03 17:58:00,40.5,25.5,30.03,NNW,338,10.7,10.7,55,0.00,OVC,,0.00,0.0,WeatherDisplay:10.37,2013-03-03 16:58:00,
2013-03-03 18:03:00,40.3,25.4,30.03,NNW,338,9.2,9.2,55,0.00,CLR,,0.00,0.0,WeatherDisplay:10.37,2013-03-03 17:03:00,
2013-03-03 18:08:00,40.1,25.6,30.00,NW,315,4.6,4.6,56,0.00,CLR,,0.00,0.0,WeatherDisplay:10.37,2013-03-03 17:08:00,
2013-03-03 18:13:00,39.9,25.5,30.00,NW,315,11.5,11.5,56,0.00,CLR,,0.00,0.0,WeatherDisplay:10.37,2013-03-03 17:13:00,
2013-03-03 18:18:00,39.7,25.3,30.00,NNE,22,6.4,6.4,56,0.00,CLR,,0.00,0.0,WeatherDisplay:10.37,2013-03-03 17:18:00,
2013-03-03 18:23:00,39.6,25.1,30.00,NNW,338,9.2,9.2,56,0.00,CLR,,0.00,0.0,WeatherDisplay:10.37,2013-03-03 17:23:00,
2013-03-03 18:29:00,39.4,25.0,30.00,WNW,292,8.1,8.1,56,0.00,CLR,,0.00,0.0,WeatherDisplay:10.37,2013-03-03 17:29:00,
2013-03-03 18:34:00,39.2,25.2,30.00,NW,315,9.4,9.4,57,0.00,CLR,,0.00,0.0,WeatherDisplay:10.37,2013-03-03 17:34:00,
2013-03-03 18:39:00,39.0,25.1,30.00,WNW,292,6.9,6.9,57,0.00,CLR,,0.00,0.0,WeatherDisplay:10.37,2013-03-03 17:39:00,
2013-03-03 18:44:00,38.8,24.9,30.00,WNW,292,9.2,9.2,57,0.00,CLR,,0.00,0.0,WeatherDisplay:10.37,2013-03-03 17:44:00,
2013-03-03 18:49:00,38.8,25.3,30.00,NNW,338,7.1,7.1,58,0.00,CLR,,0.00,0.0,WeatherDisplay:10.37,2013-03-03 17:49:00,
2013-03-03 18:54:00,38.5,25.0,30.03,NNE,22,8.1,8.1,58,0.00,CLR,,0.00,0.0,WeatherDisplay:10.37,2013-03-03 17:54:00,
2013-03-03 18:59:00,38.3,24.8,30.03,WNW,292,8.7,8.7,58,0.00,CLR,,0.00,0.0,WeatherDisplay:10.37,2013-03-03 17:59:00,
2013-03-03 19:04:00,38.1,25.0,30.03,WNW,292,6.9,6.9,59,0.00,CLR,,0.00,0.0,WeatherDisplay:10.37,2013-03-03 18:04:00,
2013-03-03 19:09:00,38.1,25.0,30.00,WNW,292,6.9,6.9,59,0.00,CLR,,0.00,0.0,WeatherDisplay:10.37,2013-03-03 18:09:00,
2013-03-03 19:14:00,38.3,25.2,30.00,NW,315,9.2,9.2,59,0.00,CLR,,0.00,0.0,WeatherDisplay:10.37,2013-03-03 18:14:00,
2013-03-03 19:19:00,38.3,25.2,30.00,NNW,338,8.1,8.1,59,0.00,CLR,,0.00,0.0,WeatherDisplay:10.37,2013-03-03 18:19:00,
2013-03-03 19:24:00,38.5,25.0,30.03,NNW,338,8.5,8.5,58,0.00,CLR,,0.00,0.0,WeatherDisplay:10.37,2013-03-03 18:24:00,
2013-03-03 19:29:00,38.5,25.0,30.03,WNW,292,5.8,5.8,58,0.00,CLR,,0.00,0.0,WeatherDisplay:10.37,2013-03-03 18:29:00,
2013-03-03 19:34:00,38.3,24.8,30.03,NNW,338,6.4,6.4,58,0.00,CLR,,0.00,0.0,WeatherDisplay:10.37,2013-03-03 18:34:00,
2013-03-03 19:39:00,38.1,25.0,30.06,NNW,338,5.8,5.8,59,0.00,CLR,,0.00,0.0,WeatherDisplay:10.37,2013-03-03 18:39:00,
2013-03-03 19:44:00,38.1,25.0,30.06,WNW,292,5.8,5.8,59,0.00,CLR,,0.00,0.0,WeatherDisplay:10.37,2013-03-03 18:44:00,
2013-03-03 19:49:00,38.1,25.0,30.06,WNW,292,5.8,5.8,59,0.00,CLR,,0.00,0.0,WeatherDisplay:10.37,2013-03-03 18:49:00,
2013-03-03 19:54:00,37.9,24.9,30.06,NNW,338,3.1,3.1,59,0.00,CLR,,0.00,0.0,WeatherDisplay:10.37,2013-03-03 18:54:00,
2013-03-03 19:59:00,37.6,24.5,30.06,NW,315,2.3,2.4,59,0.00,CLR,,0.00,0.0,WeatherDisplay:10.37,2013-03-03 18:59:00,
2013-03-03 20:04:00,37.4,24.8,30.06,NNW,338,3.5,3.5,60,0.00,CLR,,0.00,0.0,WeatherDisplay:10.37,2013-03-03 19:04:00,
2013-03-03 20:09:00,37.0,24.8,30.06,WNW,292,5.8,5.8,61,0.00,CLR,,0.00,0.0,WeatherDisplay:10.37,2013-03-03 19:09:00,
2013-03-03 20:14:00,37.0,25.2,30.06,WNW,292,4.6,4.6,62,0.00,CLR,,0.00,0.0,WeatherDisplay:10.37,2013-03-03 19:14:00,
2013-03-03 20:19:00,37.0,25.2,30.06,WNW,292,4.6,4.6,62,0.00,CLR,,0.00,0.0,WeatherDisplay:10.37,2013-03-03 19:19:00,
2013-03-03 20:24:00,37.0,25.2,30.06,WNW,292,4.6,4.6,62,0.00,CLR,,0.00,0.0,WeatherDisplay:10.37,2013-03-03 19:24:00,
2013-03-03 20:29:00,37.0,25.2,30.06,WNW,292,4.9,4.9,62,0.00,CLR,,0.00,0.0,WeatherDisplay:10.37,2013-03-03 19:29:00,
2013-03-03 20:34:00,37.0,25.2,30.06,WSW,248,5.8,5.8,62,0.00,CLR,,0.00,0.0,WeatherDisplay:10.37,2013-03-03 19:34:00,
2013-03-03 20:39:00,37.0,25.2,30.06,WNW,292,2.9,2.9,62,0.00,CLR,,0.00,0.0,WeatherDisplay:10.37,2013-03-03 19:39:00,
2013-03-03 20:44:00,36.9,24.7,30.06,WNW,292,2.3,2.3,61,0.00,CLR,,0.00,0.0,WeatherDisplay:10.37,2013-03-03 19:44:00,
2013-03-03 20:49:00,36.7,24.9,30.06,WNW,292,2.3,2.4,62,0.00,CLR,,0.00,0.0,WeatherDisplay:10.37,2013-03-03 19:49:00,
2013-03-03 20:54:00,36.3,24.5,30.06,NW,315,2.3,2.3,62,0.00,CLR,,0.00,0.0,WeatherDisplay:10.37,2013-03-03 19:54:00,
2013-03-03 20:59:00,36.1,24.7,30.06,WSW,248,4.6,4.6,63,0.00,CLR,,0.00,0.0,WeatherDisplay:10.37,2013-03-03 19:59:00,
2013-03-03 21:04:00,36.0,24.6,30.06,West,270,2.3,2.3,63,0.00,CLR,,0.00,0.0,WeatherDisplay:10.37,2013-03-03 20:04:00,
2013-03-03 21:09:00,35.8,24.8,30.06,WSW,248,3.5,3.5,64,0.00,CLR,,0.00,0.0,WeatherDisplay:10.37,2013-03-03 20:09:00,
2013-03-03 21:14:00,35.6,24.6,30.06,WSW,248,3.3,3.3,64,0.00,CLR,,0.00,0.0,WeatherDisplay:10.37,2013-03-03 20:14:00,
2013-03-03 21:19:00,35.4,25.2,30.06,WNW,292,3.8,3.8,66,0.00,CLR,,0.00,0.0,WeatherDisplay:10.37,2013-03-03 20:19:00,
2013-03-03 21:24:00,35.4,25.2,30.06,WSW,248,3.1,3.1,66,0.00,CLR,,0.00,0.0,WeatherDisplay:10.37,2013-03-03 20:24:00,
2013-03-03 21:29:00,35.4,24.8,30.06,NNW,338,4.6,4.6,65,0.00,CLR,,0.00,0.0,WeatherDisplay:10.37,2013-03-03 20:29:00,
2013-03-03 21:34:00,35.4,24.8,30.06,NNW,338,3.8,3.8,65,0.00,CLR,,0.00,0.0,WeatherDisplay:10.37,2013-03-03 20:34:00,
2013-03-03 21:39:00,35.4,24.8,30.06,NW,315,5.8,5.8,65,0.00,CLR,,0.00,0.0,WeatherDisplay:10.37,2013-03-03 20:39:00,
2013-03-03 21:44:00,35.4,24.8,30.06,West,270,5.8,5.8,65,0.00,CLR,,0.00,0.0,WeatherDisplay:10.37,2013-03-03 20:44:00,
2013-03-03 21:49:00,35.2,24.6,30.06,NNW,338,4.3,4.3,65,0.00,CLR,,0.00,0.0,WeatherDisplay:10.37,2013-03-03 20:49:00,
2013-03-03 21:54:00,35.1,24.1,30.06,WNW,292,3.5,3.5,64,0.00,CLR,,0.00,0.0,WeatherDisplay:10.37,2013-03-03 20:54:00,
2013-03-03 21:59:00,35.1,24.1,30.06,West,270,2.3,2.3,64,0.00,CLR,,0.00,0.0,WeatherDisplay:10.37,2013-03-03 20:59:00,
2013-03-03 22:04:00,34.9,24.3,30.06,WNW,292,2.9,2.9,65,0.00,CLR,,0.00,0.0,WeatherDisplay:10.37,2013-03-03 21:04:00,
2013-03-03 22:09:00,34.7,24.5,30.06,West,270,2.6,2.6,66,0.00,CLR,,0.00,0.0,WeatherDisplay:10.37,2013-03-03 21:09:00,
2013-03-03 22:14:00,34.5,24.3,30.06,WNW,292,4.6,4.6,66,0.00,CLR,,0.00,0.0,WeatherDisplay:10.37,2013-03-03 21:14:00,
2013-03-03 22:19:00,34.3,24.2,30.06,NNW,338,3.5,3.5,66,0.00,CLR,,0.00,0.0,WeatherDisplay:10.37,2013-03-03 21:19:00,
2013-03-03 22:24:00,34.2,24.0,30.09,WNW,292,3.8,3.8,66,0.00,CLR,,0.00,0.0,WeatherDisplay:10.37,2013-03-03 21:24:00,
2013-03-03 22:29:00,34.2,23.6,30.09,WNW,292,0.0,0.0,65,0.00,CLR,,0.00,0.0,WeatherDisplay:10.37,2013-03-03 21:29:00,
2013-03-03 22:34:00,33.8,23.3,30.09,WNW,292,2.3,2.3,65,0.00,CLR,,0.00,0.0,WeatherDisplay:10.37,2013-03-03 21:34:00,
2013-03-03 22:39:00,33.4,23.7,30.09,WSW,248,4.6,4.6,67,0.00,CLR,,0.00,0.0,WeatherDisplay:10.37,2013-03-03 21:39:00,
2013-03-03 22:44:00,33.3,23.5,30.09,WNW,292,3.5,3.5,67,0.00,CLR,,0.00,0.0,WeatherDisplay:10.37,2013-03-03 21:44:00,
2013-03-03 22:49:00,33.1,23.7,30.09,WNW,292,3.5,3.5,68,0.00,CLR,,0.00,0.0,WeatherDisplay:10.37,2013-03-03 21:49:00,
2013-03-03 22:54:00,33.3,23.8,30.09,WNW,292,3.5,3.5,68,0.00,CLR,,0.00,0.0,WeatherDisplay:10.37,2013-03-03 21:54:00,
2013-03-03 22:59:00,33.3,23.8,30.09,WNW,292,4.6,4.6,68,0.00,CLR,,0.00,0.0,WeatherDisplay:10.37,2013-03-03 21:59:00,
2013-03-03 23:04:00,33.4,24.0,30.09,NNW,338,5.8,5.8,68,0.00,CLR,,0.00,0.0,WeatherDisplay:10.37,2013-03-03 22:04:00,
2013-03-03 23:09:00,33.4,24.0,30.09,NNW,338,5.8,5.8,68,0.00,CLR,,0.00,0.0,WeatherDisplay:10.37,2013-03-03 22:09:00,
2013-03-03 23:14:00,33.4,24.0,30.09,NNW,338,5.8,5.8,68,0.00,CLR,,0.00,0.0,WeatherDisplay:10.37,2013-03-03 22:14:00,
2013-03-03 23:19:00,33.6,24.2,30.09,WNW,292,8.1,8.1,68,0.00,CLR,,0.00,0.0,WeatherDisplay:10.37,2013-03-03 22:19:00,
2013-03-03 23:24:00,33.6,24.2,30.12,NNE,22,8.1,8.1,68,0.00,CLR,,0.00,0.0,WeatherDisplay:10.37,2013-03-03 22:24:00,
2013-03-03 23:29:00,33.6,24.2,30.12,WNW,292,6.9,6.9,68,0.00,CLR,,0.00,0.0,WeatherDisplay:10.37,2013-03-03 22:29:00,
2013-03-03 23:34:00,33.6,24.2,30.12,WNW,292,5.9,5.9,68,0.00,CLR,,0.00,0.0,WeatherDisplay:10.37,2013-03-03 22:34:00,
2013-03-03 23:39:00,33.6,24.2,30.09,WNW,292,5.8,5.8,68,0.00,CLR,,0.00,0.0,WeatherDisplay:10.37,2013-03-03 22:39:00,
2013-03-03 23:44:00,33.6,24.2,30.09,NNW,338,6.2,6.2,68,0.00,CLR,,0.00,0.0,WeatherDisplay:10.37,2013-03-03 22:44:00,
2013-03-03 23:49:00,33.6,24.2,30.09,NNE,22,4.6,4.6,68,0.00,CLR,,0.00,0.0,WeatherDisplay:10.37,2013-03-03 22:49:00,
2013-03-03 23:54:00,33.4,24.0,30.06,NNW,338,3.5,3.5,68,0.00,CLR,,0.00,0.0,WeatherDisplay:10.37,2013-03-03 22:54:00,
2013-03-03 23:59:00,33.3,23.8,30.06,NNW,338,3.6,3.6,68,0.00,CLR,,0.00,0.0,WeatherDisplay:10.37,2013-03-03 22:59:00,